User: anonymous   Login
Location: Killarney Provincial Park Observatory
(46.0124°N, 81.4000°W)
Time: 00:28:52
(UTC-05:00)
Language:

Iridium 22 - Orbit

View from above orbital plane
View from above orbital plane
View from above satellite
View from above satellite

Ground track
Ground track

The orbit data is extracted from the following two-line orbital elements,

1 24907U 97043E   14330.43206925  .00000625  00000-0  21601-3 0   747
2 24907 086.3963 286.2953 0002199 101.5725 012.9173 14.34217508903994
Epoch (UTC): 26 November 2014 10:22:10
Eccentricity: 0.0002199
inclination: 86.3963°
perigee height: 776 km
apogee height: 779 km
right ascension of ascending node: 286.2953°
argument of perigee: 101.5725°
revolutions per day: 14.34217508
mean anomaly at epoch: 12.9173°
orbit number at epoch: 90399

The dashed part of the orbit path shows where the satellite is in the earth's shadow,  

DLR